Regional Weather Roundup
Issued by NWS

Home | Current Version | Previous Version | Text Only | Print | Product List | Glossary Off
Versions: 1 2 3 4 5 6 7 8 9 10 11 12 13 14 15 16 17 18 19 20 21 22 23 24 25 26 27 28 29 30 31 32 33 34 35 36 37 38 39 40 41 42 43 44 45 46 47 48 49 50

000
ASUS43 KOAX 052002
RWRNE

WEATHER ROUNDUP FOR NEBRASKA
NATIONAL WEATHER SERVICE OMAHA NE
200 PM CST MON DEC 05 2016

NOTES: SATELLITE DATA IS BEING USED TO AUGMENT CLOUD COVER ABOVE
       12000 FEET.
       "FAIR" INDICATES FEW OR NO CLOUDS BELOW 12,000 FEET WITH NO
       SIGNIFICANT WEATHER AND/OR OBSTRUCTIONS TO VISIBILITY.

  * THESE STATIONS DO NOT REPORT WEATHER SUCH AS RAIN...SNOW OR FOG.

NEZ001>004-019>022-054>056-052100-
NEBRASKA PANHANDLE

CITY           SKY/WX    TMP DP  RH WIND       PRES   REMARKS
SCOTTSBLUFF    PTSUNNY   32  19  58 NW28G35   29.71R WCI  18
ALLIANCE       CLOUDY    35  25  66 NW24G31   29.64R WCI  23
CHADRON        CLOUDY    29  22  75 W24G33    29.71R WCI  15
KIMBALL        SUNNY     38   3  23 NW39G63   29.67R WCI  24
SIDNEY         MOSUNNY   42   3  19 NW47G66   29.63R
$$

NEZ057>060-069>072-079>082-052100-
SOUTHWEST NEBRASKA

CITY           SKY/WX    TMP DP  RH WIND       PRES   REMARKS
NORTH PLATTE   MOSUNNY   57  25  29 W23G32    29.57S
IMPERIAL       CLOUDY    51  20  29 NW28G37   29.60R
LEXINGTON      PTSUNNY   51  26  37 S3        29.56R
MCCOOK         CLOUDY    50  24  36 NE7       29.56S
OGALLALA       CLOUDY    52  19  26 NW31G39   29.60R
$$

NEZ005>010-023>029-035>040-094-052100-
NORTH CENTRAL NEBRASKA

CITY           SKY/WX    TMP DP  RH WIND       PRES   REMARKS
VALENTINE      CLOUDY    36  28  73 NW17G31   29.60R WCI  26
AINSWORTH      CLOUDY    38  31  76 NW22G30   29.57S WCI  27
BROKEN BOW     SUNNY     59  26  28 W22G29    29.53R
ORD            CLOUDY    47  26  44 SE5       29.53S
$$

NEZ041-046>049-061>064-073>077-083>087-052100-
SOUTH CENTRAL NEBRASKA

CITY           SKY/WX    TMP DP  RH WIND       PRES   REMARKS
GRAND ISLAND   CLOUDY    48  33  56 S14       29.57F
AURORA         CLOUDY    47  33  58 S13       29.58S
HASTINGS       MOSUNNY   47  32  56 S13G23    29.59F
HEBRON         SUNNY     51  37  58 S13G21    29.65S
HOLDREGE       CLOUDY    48  28  45 S9        29.56F
KEARNEY *      CLOUDY    48  28  46 S15       29.56F
YORK           MOSUNNY   46  36  66 S18G25    29.60F
$$

NEZ011>018-030>034-042>045-052100-
NORTHEAST NEBRASKA

CITY           SKY/WX    TMP DP  RH WIND       PRES   REMARKS
NORFOLK        CLOUDY    43  32  65 S10       29.54S
ALBION         CLOUDY    45  30  57 S9        29.55S
BLAIR          CLOUDY    48  36  64 S21G29    29.62F
FREMONT        CLOUDY    46  35  63 S17       29.62F
TEKAMAH        CLOUDY    45  37  73 S15       29.62F
WAYNE          CLOUDY    44  34  67 S18G26    29.55R
$$

NEZ050>053-065>068-078-088>093-052100-
SOUTHEAST NEBRASKA

CITY           SKY/WX    TMP DP  RH WIND       PRES   REMARKS
LINCOLN        SUNNY     51  36  56 S21       29.65S
OMAHA EPPLEY   CLOUDY    49  36  61 S24       29.65F
BEATRICE       SUNNY     54  33  45 S15G22    29.67R
FALLS CITY     SUNNY     50  37  61 S18G25    29.71F
NEBRASKA CITY  SUNNY     51  31  47 S20       29.69F
$$

NEZ044-045-051>053-067-052100-
OMAHA AREA

CITY           SKY/WX    TMP DP  RH WIND       PRES   REMARKS
OMAHA EPPLEY   CLOUDY    49  36  61 S24       29.65F
BLAIR          CLOUDY    48  36  64 S21G29    29.62F
FREMONT        CLOUDY    46  35  63 S17       29.62F
MILLARD        CLOUDY    51  36  55 S18       29.65F
OFFUTT AFB     MOSUNNY   52  37  56 S23G31    29.66F
WAHOO          FAIR      48  36  64 S20       29.63F
$$



USA.gov is the U.S. government's official web portal to all federal, state and local government web resources and services.